Theta_e
310 310 310 310 311 311 311 311 311 311 312 312 312 312 312 311 312 317 319 331 333 333 333 334 345 344 349 352 352 351 351 355 356 356 352 338 348 351 350 351 351 350 351 349 350
310 310 310 310 310 310 310 311 311 311 312 312 312 312 312 311 316 323 336 333 331 334 334 351 356 354 356 353 351 351 353 355 350 347 348 349 347 349 354 352 351 352 350 349 350
310 310 310 310 310 310 310 310 310 311 311 312 312 312 312 312 325 326 339 338 329 335 337 346 347 352 360 352 351 352 354 351 349 347 349 349 342 347 354 355 349 354 352 350 349
310 310 310 310 310 310 310 310 310 311 311 311 312 313 311 324 329 336 334 337 329 333 342 354 355 355 358 357 352 353 353 353 352 350 352 352 348 350 352 352 347 350 350 350 349
310 310 310 310 310 310 310 310 310 311 311 311 311 312 313 315 319 329 328 331 331 332 334 347 355 353 360 359 351 356 355 353 351 352 351 350 351 349 350 346 346 348 350 350 349
309 309 309 309 310 310 310 310 311 310 310 311 311 312 323 317 324 328 332 333 331 332 338 349 352 352 353 349 353 352 352 348 350 351 351 352 348 348 348 345 347 348 348 347 348
309 308 309 309 309 309 309 310 311 310 311 311 311 315 321 314 328 330 334 335 333 334 335 339 349 353 352 356 350 354 356 356 354 353 351 343 348 351 346 345 346 346 346 345 344
310 309 309 309 309 309 309 310 311 311 311 311 313 321 311 317 320 321 323 328 334 335 337 347 349 352 355 350 357 358 361 360 353 352 348 342 348 349 345 345 346 345 345 345 342
310 309 309 309 309 308 309 311 311 312 313 313 316 320 314 320 325 326 326 325 328 332 334 348 349 356 356 361 363 362 359 363 358 350 347 345 347 350 344 344 345 344 344 344 342
310 309 308 308 308 308 309 311 315 315 318 320 323 316 316 323 330 330 329 327 332 335 335 342 349 353 360 361 364 363 363 355 354 350 348 347 349 350 345 344 344 344 343 343 343
307 306 306 306 307 307 309 311 308 317 322 314 318 314 319 324 325 326 326 330 335 337 339 344 351 355 358 357 357 357 357 352 351 349 351 351 349 348 347 344 344 342 343 342 342
308 306 306 306 307 308 309 307 310 314 314 315 319 317 318 320 322 322 326 329 336 339 342 347 355 350 352 352 354 355 355 353 350 350 349 351 351 347 345 347 344 344 343 343 342
308 306 306 307 307 312 310 312 314 314 313 316 315 319 320 320 321 323 326 330 339 341 345 344 347 351 352 354 354 352 350 351 351 351 348 349 349 348 345 345 344 343 343 342 342
307 307 309 307 309 309 310 315 313 313 315 317 317 317 320 322 324 324 326 333 341 343 347 349 349 353 352 354 351 352 348 351 353 353 354 346 354 345 343 347 346 344 343 342 342
308 309 311 309 308 309 313 312 312 313 314 319 321 320 319 321 324 325 327 336 341 347 348 353 352 353 352 352 348 353 352 351 351 350 349 349 350 346 343 345 346 347 345 343 341
309 310 310 309 308 310 311 311 314 318 323 323 321 320 322 323 326 327 332 339 338 345 344 348 347 350 351 351 350 351 353 349 348 346 352 349 349 348 341 339 341 349 347 345 343
309 309 309 308 308 311 312 310 317 320 319 324 321 321 321 322 324 327 328 334 343 348 348 344 347 348 349 352 349 350 351 357 354 350 354 343 345 344 340 339 339 348 349 347 345
309 309 310 310 310 308 310 313 320 318 319 320 319 319 322 323 324 326 326 327 330 342 341 346 348 349 348 349 353 351 350 352 359 361 352 345 347 342 340 340 339 346 350 348 345
309 310 309 311 310 309 310 314 315 316 319 318 317 320 319 323 325 326 325 325 325 334 342 340 343 343 343 348 350 355 354 348 352 352 357 353 347 340 340 343 343 343 345 345 344
309 309 312 315 311 311 311 314 315 316 317 317 318 318 318 320 322 325 324 325 326 331 333 336 342 342 345 345 345 352 351 357 353 361 362 353 352 344 342 343 348 350 350 348 347
309 312 314 315 311 309 313 312 315 316 317 317 318 318 318 319 320 322 324 325 326 327 331 331 335 338 346 346 348 351 353 350 351 351 355 355 349 343 341 340 347 347 349 349 351
305 313 315 311 308 306 312 314 315 317 314 315 316 316 317 318 319 319 321 325 325 326 334 330 332 335 346 345 344 346 351 350 356 348 346 346 345 339 341 339 342 348 349 351 354
307 309 314 313 314 311 311 315 313 313 313 315 317 317 317 318 317 317 321 321 321 326 328 330 333 347 349 343 344 347 346 347 345 340 341 344 344 332 331 335 337 348 356 356 350
311 318 313 313 311 319 320 321 322 320 317 315 316 316 316 316 313 316 320 322 322 324 338 335 333 338 345 348 343 347 345 342 341 344 345 342 344 342 334 337 344 354 357 354 350
312 315 313 316 316 315 318 320 322 323 322 319 318 317 316 317 316 316 319 320 324 325 323 330 335 335 335 341 342 341 344 345 340 340 347 342 337 335 333 343 355 357 354 350 347
310 314 313 315 314 316 316 319 322 321 320 321 319 320 317 314 314 317 319 322 325 322 322 319 334 330 332 342 343 344 341 341 342 339 339 338 337 336 352 355 357 354 350 349 348
309 311 312 316 314 317 318 318 320 319 319 320 322 322 322 318 316 313 316 320 324 323 322 321 325 334 336 331 341 345 343 342 340 337 338 340 338 347 359 359 356 352 351 352 351
Wind_Speed
18 19 20 20 20 21 21 20 20 20 20 21 22 21 21 22 25 12 6 12 3 5 7 2 2 9 6 4 2 3 3 2 6 8 8 8 4 4 3 15 4 5 7 12 31
19 20 20 21 21 22 22 21 21 20 21 21 21 21 21 23 18 11 18 14 14 4 8 7 5 5 4 3 2 4 2 1 3 7 8 6 4 12 5 11 3 8 17 31 32
20 20 21 21 22 23 22 22 21 21 20 21 21 20 19 18 5 6 11 4 15 12 10 8 9 3 4 1 2 1 1 3 2 1 7 7 3 6 16 6 6 20 22 23 28
21 21 22 22 24 23 23 23 22 21 21 21 21 19 15 5 4 3 9 7 20 16 13 7 3 4 3 5 2 2 7 5 5 3 4 7 6 1 3 6 12 23 27 26 23
22 23 23 24 25 25 25 24 23 21 21 20 19 17 5 3 10 14 14 4 19 13 11 5 2 4 3 3 3 3 4 10 6 10 9 9 11 4 4 10 16 19 22 22 19
24 24 25 26 26 26 26 26 23 22 21 19 17 10 0 5 6 8 3 13 13 14 10 7 5 5 6 2 3 6 11 10 8 15 7 6 2 9 3 14 18 22 21 20 19
24 25 26 27 27 27 28 28 25 24 21 17 12 1 2 16 3 6 2 6 15 13 7 5 9 8 5 5 7 7 8 11 9 5 2 7 2 2 11 15 19 17 17 17 17
25 26 27 27 27 30 30 29 28 25 21 11 4 4 8 6 8 24 19 20 12 14 9 14 12 6 5 5 2 1 2 5 5 8 3 6 6 5 11 16 15 15 15 15 12
26 26 27 27 28 32 32 30 29 18 5 4 5 4 10 7 8 18 22 14 14 15 10 20 5 3 6 3 3 4 3 4 6 1 2 2 1 9 10 11 14 14 14 15 14
27 28 28 28 30 32 34 31 6 3 6 5 1 2 7 4 4 4 12 22 4 8 6 5 3 4 3 1 4 6 3 2 3 3 5 2 4 11 11 10 13 13 14 15 16
27 30 30 31 32 34 33 7 4 2 4 8 7 6 4 5 5 3 2 6 4 5 7 6 5 10 16 15 18 16 3 3 3 3 4 2 4 11 11 8 8 9 13 15 17
29 29 31 33 32 30 10 1 2 4 8 11 14 12 18 5 6 8 7 6 6 7 7 4 8 15 12 21 19 14 11 6 4 5 5 4 5 10 17 20 18 17 16 18 17
29 29 32 33 30 5 7 8 2 16 4 8 8 9 6 11 9 13 8 6 5 7 6 7 5 5 9 8 6 2 8 5 5 2 3 2 6 4 9 17 18 19 19 16 20
30 30 31 32 4 12 8 3 17 3 2 7 5 8 7 9 6 9 12 6 3 11 7 5 5 6 5 6 7 4 6 3 4 5 1 5 5 6 5 15 20 20 19 21 19
30 33 27 19 18 5 2 19 22 5 3 3 4 1 4 11 5 8 11 4 8 5 7 6 6 11 5 5 7 6 3 4 4 5 3 1 2 7 4 7 15 21 23 22 21
37 32 25 10 9 19 15 22 4 5 7 6 5 4 6 4 4 2 6 3 6 6 3 6 2 3 8 3 1 5 3 2 4 3 3 4 5 7 3 6 8 19 23 22 19
41 32 21 9 6 5 15 3 4 3 6 5 1 5 4 5 6 5 6 6 7 5 3 3 2 3 1 4 4 4 5 3 5 3 5 3 4 9 10 8 10 19 23 22 19
38 29 18 24 9 14 5 4 4 3 6 6 5 2 8 5 5 6 6 4 3 5 4 6 3 8 5 5 6 1 4 5 6 5 3 3 4 6 4 15 11 15 17 11 9
35 10 8 11 23 9 5 3 8 6 4 8 8 6 6 1 5 4 8 7 9 9 9 6 6 1 7 5 8 3 3 1 6 5 3 3 7 8 5 5 5 9 9 8 8
21 9 6 5 19 11 4 5 5 4 5 5 5 4 5 5 2 7 8 6 7 11 6 8 3 5 4 6 5 7 6 2 2 5 4 4 5 5 5 3 7 9 11 7 6
4 3 9 9 17 5 4 7 5 7 3 5 3 4 3 4 4 5 9 6 8 7 10 6 5 4 5 5 9 3 5 3 1 3 5 2 6 8 7 7 7 7 7 10 8
6 3 1 22 4 1 3 6 2 2 5 3 3 9 7 4 5 5 9 7 8 10 10 10 7 5 6 3 4 3 5 6 5 6 3 1 7 4 10 8 11 15 9 6 11
2 2 4 4 3 2 5 4 5 5 9 4 4 4 1 3 3 8 5 5 4 6 10 7 3 4 4 5 3 4 5 5 4 3 7 6 9 1 6 7 8 12 10 10 13
2 3 4 2 1 3 4 5 3 4 7 6 7 6 3 6 8 6 3 3 4 4 10 13 6 11 12 8 6 6 7 8 7 5 6 9 12 10 7 11 7 14 12 9 11
3 1 0 3 2 4 2 3 4 6 4 5 3 8 8 4 4 6 4 5 3 4 6 8 9 7 10 9 6 7 10 17 10 6 12 10 8 9 8 9 13 13 14 13 13
3 3 5 4 4 4 3 1 2 4 3 5 5 9 7 9 11 8 5 3 4 5 4 5 4 4 5 8 10 6 8 12 15 13 5 8 7 4 5 8 14 21 17 16 16
7 3 1 3 4 2 2 4 7 10 7 10 8 7 3 5 10 12 6 6 4 2 3 3 3 4 4 7 7 4 8 9 7 8 7 6 13 6 9 17 19 19 24 25 19
Wind_Direction
348 349 348 347 344 343 341 339 337 335 333 332 336 338 335 327 321 299 248 245 148 158 166 237 155 157 133 106 106 106 49 0 358 6 305 353 102 140 69 143 192 171 136 149 151
345 345 345 343 341 339 337 336 334 331 330 331 335 336 333 327 320 254 282 254 212 194 167 149 116 141 65 38 51 77 128 242 28 314 332 308 205 164 125 165 33 83 109 135 148
341 341 341 339 336 334 333 332 332 328 327 328 332 334 332 329 311 252 339 253 184 156 163 165 119 122 78 27 36 142 160 284 199 287 345 324 40 318 137 215 188 148 145 148 155
337 337 336 335 334 332 330 328 327 325 325 326 331 333 330 337 289 257 353 15 153 159 153 162 82 78 134 107 256 13 231 241 272 200 290 309 302 18 195 204 155 157 155 154 163
335 334 334 333 332 330 329 326 324 322 322 324 328 333 336 337 249 280 293 305 153 167 179 182 122 132 111 119 174 216 339 309 283 296 302 251 252 241 265 118 133 145 155 162 165
334 333 332 331 330 329 326 324 320 319 317 319 320 328 339 258 273 291 306 151 171 175 185 168 170 124 114 79 93 302 311 286 298 306 291 277 271 132 166 134 142 154 163 169 170
332 331 330 330 329 328 325 321 317 314 309 309 305 269 226 238 231 108 20 192 178 185 180 183 120 59 2 54 345 327 320 0 329 321 275 93 17 176 145 146 154 165 172 174 174
334 332 331 329 329 328 324 317 316 309 298 290 251 158 244 256 260 258 258 246 207 208 228 113 119 92 110 145 178 331 23 2 303 319 21 80 232 129 154 153 166 171 177 186 191
334 331 329 329 329 329 323 319 315 302 275 170 141 166 266 288 256 251 239 217 214 205 210 128 69 102 13 51 31 225 209 195 303 216 59 62 192 159 165 171 172 180 186 191 201
333 331 333 333 331 331 322 325 336 99 118 122 118 357 266 250 221 237 223 216 171 126 113 126 101 84 113 2 246 249 251 246 246 345 37 33 30 159 177 176 189 191 192 199 204
341 341 336 331 331 330 327 344 14 27 213 197 195 245 315 277 302 228 318 167 166 136 153 163 136 180 178 203 237 240 237 216 262 219 155 175 144 172 178 186 206 205 209 209 215
341 338 335 329 330 323 315 193 164 69 296 235 246 246 252 343 312 293 176 148 140 190 130 111 202 209 177 219 225 221 211 253 299 259 180 210 232 196 186 201 199 204 212 213 215
337 337 333 326 328 328 314 245 306 342 223 278 201 205 203 157 217 264 162 168 167 181 171 170 208 214 153 176 164 256 179 200 211 278 55 50 299 208 214 205 203 210 209 217 212
336 335 332 330 328 326 278 159 321 279 348 269 225 254 154 142 254 204 185 144 180 197 134 213 211 189 144 161 158 204 211 182 73 67 92 86 280 276 214 203 201 207 206 214 213
335 332 326 331 299 284 237 319 326 143 319 219 209 145 161 161 170 212 173 127 176 158 123 231 173 160 158 190 156 201 185 161 134 117 148 172 111 270 134 202 223 216 212 210 210
335 326 320 317 251 271 301 330 115 44 253 314 151 139 135 194 190 149 142 179 158 130 34 174 305 189 192 100 208 135 124 329 73 93 27 207 157 286 193 209 246 214 219 210 206
332 319 296 257 231 271 322 1 54 166 326 318 336 151 210 190 199 164 137 143 161 125 151 18 227 296 138 98 350 101 77 5 28 22 231 24 107 248 275 243 230 215 209 208 200
328 318 290 245 259 253 290 58 178 251 258 300 321 258 157 146 234 167 118 188 246 129 132 157 249 190 179 182 178 69 129 151 181 170 258 74 237 251 269 287 254 214 199 192 197
328 314 270 259 218 183 83 118 203 214 304 345 327 49 357 47 169 141 191 199 195 171 175 156 243 97 169 151 135 228 214 165 100 17 95 266 287 298 305 31 42 125 121 143 174
322 321 266 265 168 154 86 232 226 216 343 359 27 43 348 345 338 170 176 205 212 184 172 211 180 214 152 104 52 168 152 111 353 143 228 274 282 242 235 126 100 97 121 115 108
320 2 337 162 141 58 168 226 251 270 30 5 357 322 302 293 216 196 207 255 197 206 177 146 132 254 116 188 163 119 121 74 190 151 166 191 257 212 234 162 145 130 142 140 135
336 36 77 148 70 102 173 197 259 301 35 316 236 219 212 263 297 263 203 213 193 162 170 200 158 182 207 32 72 110 158 131 138 241 235 249 258 246 227 206 168 172 147 137 115
15 277 153 300 99 316 309 290 219 251 264 245 272 213 173 257 330 213 196 212 260 178 185 174 198 91 10 359 87 178 201 177 131 109 204 171 259 5 10 318 186 136 140 149 122
23 20 348 73 216 69 6 276 246 258 248 207 230 234 270 270 197 277 227 265 332 215 242 167 146 183 204 199 153 176 188 190 148 152 200 222 245 255 268 270 153 148 136 108 94
16 1 21 327 334 353 270 293 323 357 308 236 281 219 195 261 233 224 236 319 309 325 31 149 178 169 215 179 176 182 176 188 200 194 205 217 213 259 256 161 149 128 119 116 110
31 16 351 289 300 315 358 6 317 331 266 279 223 266 202 211 205 237 171 203 225 331 53 335 208 134 163 187 181 196 221 179 201 205 201 222 237 188 110 111 150 141 135 132 132
352 334 106 281 334 348 161 349 327 321 267 250 296 288 241 212 251 239 225 173 156 179 326 83 113 131 196 111 97 321 215 192 205 223 184 196 229 161 154 165 167 156 154 159 157